Location: Haram ta Haram Freeway
(35.0583°N, 51.4202°E)
Time: 13:51:12
(UTC+04:30)

CAS-4A - Pass Details

Date: 06 July 2020
Orbit: 528 x 545 km, 43.0° (Epoch: 02 August)

Event Time Altitude Azimuth Distance (km) Brightness Sun altitude
Exits shadow 03:12:10 22° 106° (ESE) 1,192 ? -25.3°
Drops below altitude 10° 03:14:11 10° 82° (E) 1,782 ? -25.1°
Sets 03:16:37 0° 71° (ENE) 2,671 ? -24.8°
